Time,TemperatureF,DewpointF,PressureIn,WindDirection,WindDirectionDegrees,WindSpeedMPH,WindSpeedGustMPH,Humidity,HourlyPrecipIn,Conditions,Clouds,dailyrainin,SoftwareType,DateUTC
2013-03-02 00:00:00,33.3,30.4,30.05,NNE,15,0.0,4.0,89,0.00,,,0.00,Wunderground v.1.15,2013-03-02 05:00:00,
2013-03-02 00:01:00,33.3,30.4,30.05,NNE,15,0.0,0.0,89,0.00,,,0.00,Wunderground v.1.15,2013-03-02 05:01:00,
2013-03-02 00:06:00,33.2,30.3,30.05,NE,44,0.0,2.0,89,0.00,,,0.00,Wunderground v.1.15,2013-03-02 05:06:00,
2013-03-02 00:11:00,33.2,30.3,30.05,NW,322,2.0,2.0,89,0.00,,,0.00,Wunderground v.1.15,2013-03-02 05:11:00,
2013-03-02 00:17:00,33.2,30.3,30.05,NE,53,0.0,2.0,89,0.00,,,0.00,Wunderground v.1.15,2013-03-02 05:17:00,
2013-03-02 00:22:00,33.1,30.5,30.05,East,84,0.0,1.0,90,0.00,,,0.00,Wunderground v.1.15,2013-03-02 05:22:00,
2013-03-02 00:27:00,33.1,30.5,30.05,NNW,345,0.0,1.0,90,0.00,,,0.00,Wunderground v.1.15,2013-03-02 05:27:00,
2013-03-02 00:29:00,33.1,30.5,30.05,NNW,345,0.0,1.0,90,0.00,,,0.00,Wunderground v.1.15,2013-03-02 05:29:00,
2013-03-02 00:35:00,33.0,30.4,30.05,NNW,328,1.0,3.0,90,0.00,,,0.00,Wunderground v.1.15,2013-03-02 05:35:00,
2013-03-02 00:40:00,33.0,30.7,30.05,SW,218,0.0,0.0,91,0.00,,,0.00,Wunderground v.1.15,2013-03-02 05:40:00,
2013-03-02 00:45:00,32.9,30.6,30.05,SW,218,0.0,1.0,91,0.00,,,0.00,Wunderground v.1.15,2013-03-02 05:45:00,
2013-03-02 00:50:00,32.9,30.6,30.05,SW,218,1.0,1.0,91,0.00,,,0.00,Wunderground v.1.15,2013-03-02 05:50:00,
2013-03-02 00:56:00,32.8,30.5,30.05,SW,215,1.0,1.0,91,0.00,,,0.00,Wunderground v.1.15,2013-03-02 05:56:00,
2013-03-02 01:01:00,32.8,30.5,30.04,NNW,340,1.0,1.0,91,0.00,,,0.00,Wunderground v.1.15,2013-03-02 06:01:00,
2013-03-02 01:06:00,32.7,30.4,30.05,NNE,27,0.0,2.0,91,0.00,,,0.00,Wunderground v.1.15,2013-03-02 06:06:00,
2013-03-02 01:11:00,32.7,30.6,30.05,NNE,27,0.0,0.0,92,0.00,,,0.00,Wunderground v.1.15,2013-03-02 06:11:00,
2013-03-02 01:16:00,32.7,30.4,30.05,NNE,30,0.0,1.0,91,0.00,,,0.00,Wunderground v.1.15,2013-03-02 06:16:00,
2013-03-02 01:21:00,32.6,30.3,30.05,NNE,30,0.0,0.0,91,0.00,,,0.00,Wunderground v.1.15,2013-03-02 06:21:00,
2013-03-02 01:27:00,32.5,30.4,30.05,NNE,16,1.0,2.0,92,0.00,,,0.00,Wunderground v.1.15,2013-03-02 06:27:00,
2013-03-02 01:32:00,32.5,30.4,30.05,North,355,0.0,0.0,92,0.00,,,0.00,Wunderground v.1.15,2013-03-02 06:32:00,
2013-03-02 01:37:00,32.4,30.3,30.04,North,355,0.0,0.0,92,0.00,,,0.00,Wunderground v.1.15,2013-03-02 06:37:00,
2013-03-02 01:42:00,32.4,30.3,30.04,WNW,296,1.0,1.0,92,0.00,,,0.00,Wunderground v.1.15,2013-03-02 06:42:00,
2013-03-02 01:47:00,32.3,30.5,30.04,South,170,0.0,1.0,93,0.00,,,0.00,Wunderground v.1.15,2013-03-02 06:47:00,
2013-03-02 01:53:00,32.3,30.2,30.04,SSW,198,1.0,1.0,92,0.00,,,0.00,Wunderground v.1.15,2013-03-02 06:53:00,
2013-03-02 01:58:00,32.3,30.5,30.04,NNE,12,0.0,1.0,93,0.00,,,0.00,Wunderground v.1.15,2013-03-02 06:58:00,
2013-03-02 02:03:00,32.2,30.4,30.04,NE,44,0.0,2.0,93,0.00,,,0.00,Wunderground v.1.15,2013-03-02 07:03:00,
2013-03-02 02:08:00,32.2,30.4,30.04,NNE,19,0.0,3.0,93,0.00,,,0.00,Wunderground v.1.15,2013-03-02 07:08:00,
2013-03-02 02:13:00,32.2,30.4,30.04,WNW,298,0.0,1.0,93,0.00,,,0.00,Wunderground v.1.15,2013-03-02 07:13:00,
2013-03-02 02:18:00,32.1,30.3,30.04,NW,309,0.0,1.0,93,0.00,,,0.00,Wunderground v.1.15,2013-03-02 07:18:00,
2013-03-02 02:23:00,32.1,30.3,30.04,NNW,327,0.0,1.0,93,0.00,,,0.00,Wunderground v.1.15,2013-03-02 07:23:00,
2013-03-02 02:28:00,32.1,30.3,30.04,NNE,24,0.0,3.0,93,0.00,,,0.00,Wunderground v.1.15,2013-03-02 07:28:00,
2013-03-02 02:33:00,32.1,30.3,30.04,NNE,24,0.0,1.0,93,0.00,,,0.00,Wunderground v.1.15,2013-03-02 07:33:00,
2013-03-02 02:38:00,32.1,30.6,30.04,NNE,24,0.0,1.0,94,0.00,,,0.00,Wunderground v.1.15,2013-03-02 07:38:00,
2013-03-02 02:43:00,32.1,30.6,30.04,NNE,13,0.0,2.0,94,0.00,,,0.00,Wunderground v.1.15,2013-03-02 07:43:00,
2013-03-02 02:49:00,32.0,30.5,30.04,North,11,0.0,3.0,94,0.00,,,0.00,Wunderground v.1.15,2013-03-02 07:49:00,
2013-03-02 02:54:00,32.0,30.5,30.04,NNE,15,0.0,1.0,94,0.00,,,0.00,Wunderground v.1.15,2013-03-02 07:54:00,
2013-03-02 02:59:00,32.0,30.5,30.04,North,9,3.0,3.0,94,0.00,,,0.00,Wunderground v.1.15,2013-03-02 07:59:00,
2013-03-02 03:04:00,31.9,30.4,30.04,NNE,16,0.0,1.0,94,0.00,,,0.00,Wunderground v.1.15,2013-03-02 08:04:00,
2013-03-02 03:09:00,31.9,30.6,30.04,NNE,18,0.0,1.0,95,0.00,,,0.00,Wunderground v.1.15,2013-03-02 08:09:00,
2013-03-02 03:14:00,31.8,30.5,30.04,NNE,18,0.0,1.0,95,0.00,,,0.00,Wunderground v.1.15,2013-03-02 08:14:00,
2013-03-02 03:19:00,31.8,30.5,30.03,NNE,18,0.0,2.0,95,0.00,,,0.00,Wunderground v.1.15,2013-03-02 08:19:00,
2013-03-02 03:24:00,31.7,30.4,30.04,NNE,18,0.0,0.0,95,0.00,,,0.00,Wunderground v.1.15,2013-03-02 08:24:00,
2013-03-02 03:29:00,31.7,30.4,30.03,NNE,18,0.0,1.0,95,0.00,,,0.00,Wunderground v.1.15,2013-03-02 08:29:00,
2013-03-02 03:34:00,31.6,30.6,30.03,NNE,24,1.0,1.0,96,0.00,,,0.00,Wunderground v.1.15,2013-03-02 08:34:00,
2013-03-02 03:39:00,31.5,30.5,30.03,NNE,20,0.0,2.0,96,0.00,,,0.00,Wunderground v.1.15,2013-03-02 08:39:00,
2013-03-02 03:44:00,31.4,30.4,30.03,NNE,20,0.0,1.0,96,0.00,,,0.00,Wunderground v.1.15,2013-03-02 08:44:00,
2013-03-02 03:49:00,31.3,30.3,30.02,NNE,20,0.0,1.0,96,0.00,,,0.00,Wunderground v.1.15,2013-03-02 08:49:00,
2013-03-02 03:54:00,31.3,30.3,30.02,NNE,20,0.0,0.0,96,0.00,,,0.00,Wunderground v.1.15,2013-03-02 08:54:00,
2013-03-02 03:59:00,31.2,30.4,30.02,NNE,20,0.0,0.0,97,0.00,,,0.00,Wunderground v.1.15,2013-03-02 08:59:00,
2013-03-02 04:04:00,31.2,30.4,30.02,NNE,20,0.0,0.0,97,0.00,,,0.00,Wunderground v.1.15,2013-03-02 09:04:00,
2013-03-02 04:09:00,31.1,30.3,30.02,NNE,20,0.0,1.0,97,0.00,,,0.00,Wunderground v.1.15,2013-03-02 09:09:00,
2013-03-02 04:14:00,31.1,30.3,30.02,NNE,20,0.0,1.0,97,0.00,,,0.00,Wunderground v.1.15,2013-03-02 09:14:00,
2013-03-02 04:20:00,31.0,30.2,30.02,NNE,32,0.0,2.0,97,0.00,,,0.00,Wunderground v.1.15,2013-03-02 09:20:00,
2013-03-02 04:25:00,30.9,30.1,30.02,NNE,32,0.0,0.0,97,0.00,,,0.00,Wunderground v.1.15,2013-03-02 09:25:00,
2013-03-02 04:30:00,30.9,30.1,30.02,NNE,32,0.0,1.0,97,0.00,,,0.00,Wunderground v.1.15,2013-03-02 09:30:00,
2013-03-02 04:35:00,30.8,30.0,30.02,NNE,32,0.0,1.0,97,0.00,,,0.00,Wunderground v.1.15,2013-03-02 09:35:00,
2013-03-02 04:40:00,30.8,30.0,30.02,NNE,32,0.0,1.0,97,0.00,,,0.00,Wunderground v.1.15,2013-03-02 09:40:00,
2013-03-02 04:45:00,30.8,30.0,30.02,NNE,32,0.0,1.0,97,0.00,,,0.00,Wunderground v.1.15,2013-03-02 09:45:00,
2013-03-02 04:50:00,30.8,30.0,30.02,NNE,32,0.0,1.0,97,0.00,,,0.00,Wunderground v.1.15,2013-03-02 09:50:00,
2013-03-02 04:55:00,30.8,30.0,30.02,NNE,32,0.0,0.0,97,0.00,,,0.00,Wunderground v.1.15,2013-03-02 09:55:00,
2013-03-02 05:00:00,30.8,30.0,30.02,NNE,32,0.0,1.0,97,0.00,,,0.00,Wunderground v.1.15,2013-03-02 10:00:00,
2013-03-02 05:05:00,30.8,30.0,30.01,NE,34,0.0,2.0,97,0.00,,,0.00,Wunderground v.1.15,2013-03-02 10:05:00,
2013-03-02 05:10:00,30.8,30.0,30.01,NE,34,0.0,2.0,97,0.00,,,0.00,Wunderground v.1.15,2013-03-02 10:10:00,
2013-03-02 05:15:00,30.8,30.0,30.01,NE,34,0.0,1.0,97,0.00,,,0.00,Wunderground v.1.15,2013-03-02 10:15:00,
2013-03-02 05:20:00,30.8,30.0,30.01,NE,34,0.0,0.0,97,0.00,,,0.00,Wunderground v.1.15,2013-03-02 10:20:00,
2013-03-02 05:26:00,30.8,30.0,30.02,NE,34,0.0,0.0,97,0.00,,,0.00,Wunderground v.1.15,2013-03-02 10:26:00,
2013-03-02 05:31:00,30.8,30.3,30.02,NE,34,0.0,0.0,98,0.00,,,0.00,Wunderground v.1.15,2013-03-02 10:31:00,
2013-03-02 05:36:00,30.7,30.2,30.02,NE,34,0.0,0.0,98,0.00,,,0.00,Wunderground v.1.15,2013-03-02 10:36:00,
2013-03-02 05:41:00,30.7,30.2,30.02,NNE,21,3.0,3.0,98,0.00,,,0.00,Wunderground v.1.15,2013-03-02 10:41:00,
2013-03-02 05:46:00,30.6,30.1,30.02,East,79,1.0,3.0,98,0.00,,,0.00,Wunderground v.1.15,2013-03-02 10:46:00,
2013-03-02 05:51:00,30.6,30.1,30.02,NNE,17,0.0,0.0,98,0.00,,,0.00,Wunderground v.1.15,2013-03-02 10:51:00,
2013-03-02 05:56:00,30.5,30.0,30.02,NNE,17,0.0,0.0,98,0.00,,,0.00,Wunderground v.1.15,2013-03-02 10:56:00,
2013-03-02 06:01:00,30.5,30.0,30.02,NNE,17,0.0,1.0,98,0.00,,,0.00,Wunderground v.1.15,2013-03-02 11:01:00,
2013-03-02 06:06:00,30.5,30.0,30.02,NNE,17,0.0,1.0,98,0.00,,,0.00,Wunderground v.1.15,2013-03-02 11:06:00,
2013-03-02 06:11:00,30.5,30.0,30.02,NNE,30,0.0,1.0,98,0.00,,,0.00,Wunderground v.1.15,2013-03-02 11:11:00,
2013-03-02 06:16:00,30.5,30.0,30.02,North,5,0.0,3.0,98,0.00,,,0.00,Wunderground v.1.15,2013-03-02 11:16:00,
2013-03-02 06:22:00,30.4,29.9,30.01,NNE,25,0.0,0.0,98,0.00,,,0.00,Wunderground v.1.15,2013-03-02 11:22:00,
2013-03-02 06:27:00,30.4,29.9,30.01,NNE,33,0.0,1.0,98,0.00,,,0.00,Wunderground v.1.15,2013-03-02 11:27:00,
2013-03-02 06:32:00,30.4,29.7,30.01,NNE,33,0.0,0.0,97,0.00,,,0.00,Wunderground v.1.15,2013-03-02 11:32:00,
2013-03-02 06:37:00,30.4,29.7,30.01,SW,219,0.0,2.0,97,0.00,,,0.00,Wunderground v.1.15,2013-03-02 11:37:00,
2013-03-02 06:42:00,30.4,29.7,30.02,WNW,297,0.0,2.0,97,0.00,,,0.00,Wunderground v.1.15,2013-03-02 11:42:00,
2013-03-02 06:47:00,30.4,29.7,30.02,NNE,26,0.0,2.0,97,0.00,,,0.00,Wunderground v.1.15,2013-03-02 11:47:00,
2013-03-02 06:52:00,30.3,29.3,30.02,NNE,26,0.0,0.0,96,0.00,,,0.00,Wunderground v.1.15,2013-03-02 11:52:00,
2013-03-02 06:57:00,30.3,29.3,30.02,NNE,26,0.0,0.0,96,0.00,,,0.00,Wunderground v.1.15,2013-03-02 11:57:00,
2013-03-02 07:02:00,30.2,29.2,30.02,NW,314,0.0,1.0,96,0.00,,,0.00,Wunderground v.1.15,2013-03-02 12:02:00,
2013-03-02 07:07:00,30.1,29.1,30.02,NW,314,0.0,1.0,96,0.00,,,0.00,Wunderground v.1.15,2013-03-02 12:07:00,
2013-03-02 07:12:00,30.0,28.7,30.02,NW,304,0.0,1.0,95,0.00,,,0.00,Wunderground v.1.15,2013-03-02 12:12:00,
2013-03-02 07:17:00,30.0,28.7,30.02,NW,319,0.0,2.0,95,0.00,,,0.00,Wunderground v.1.15,2013-03-02 12:17:00,
2013-03-02 07:22:00,30.0,28.7,30.03,North,360,1.0,4.0,95,0.00,,,0.00,Wunderground v.1.15,2013-03-02 12:22:00,
2013-03-02 07:27:00,30.0,28.7,30.03,North,360,0.0,4.0,95,0.00,,,0.00,Wunderground v.1.15,2013-03-02 12:27:00,
2013-03-02 07:32:00,30.0,28.7,30.03,NNE,22,1.0,3.0,95,0.00,,,0.00,Wunderground v.1.15,2013-03-02 12:32:00,
2013-03-02 07:37:00,30.0,28.7,30.03,NNE,22,0.0,3.0,95,0.00,,,0.00,Wunderground v.1.15,2013-03-02 12:37:00,
2013-03-02 07:42:00,30.0,28.5,30.03,NE,46,0.0,4.0,94,0.00,,,0.00,Wunderground v.1.15,2013-03-02 12:42:00,
2013-03-02 07:47:00,30.1,28.6,30.03,NNE,21,0.0,4.0,94,0.00,,,0.00,Wunderground v.1.15,2013-03-02 12:47:00,
2013-03-02 07:52:00,30.1,28.6,30.04,NNE,28,0.0,4.0,94,0.00,,,0.00,Wunderground v.1.15,2013-03-02 12:52:00,
2013-03-02 07:57:00,30.2,28.7,30.03,NE,44,0.0,4.0,94,0.00,,,0.00,Wunderground v.1.15,2013-03-02 12:57:00,
2013-03-02 08:02:00,30.2,28.7,30.03,East,98,0.0,0.0,94,0.00,,,0.00,Wunderground v.1.15,2013-03-02 13:02:00,
2013-03-02 08:07:00,30.3,28.8,30.03,East,98,0.0,1.0,94,0.00,,,0.00,Wunderground v.1.15,2013-03-02 13:07:00,
2013-03-02 08:12:00,30.4,28.9,30.04,SSE,160,0.0,2.0,94,0.00,,,0.00,Wunderground v.1.15,2013-03-02 13:12:00,
2013-03-02 08:17:00,30.5,28.7,30.03,NE,34,0.0,3.0,93,0.00,,,0.00,Wunderground v.1.15,2013-03-02 13:17:00,
2013-03-02 08:22:00,30.6,28.8,30.04,NNW,335,0.0,0.0,93,0.00,,,0.00,Wunderground v.1.15,2013-03-02 13:22:00,
2013-03-02 08:27:00,30.7,28.9,30.04,NE,38,0.0,2.0,93,0.00,,,0.00,Wunderground v.1.15,2013-03-02 13:27:00,
2013-03-02 08:32:00,30.7,28.7,30.04,NE,44,1.0,3.0,92,0.00,,,0.00,Wunderground v.1.15,2013-03-02 13:32:00,
2013-03-02 08:37:00,30.8,28.8,30.04,NNE,26,4.0,10.0,92,0.00,,,0.00,Wunderground v.1.15,2013-03-02 13:37:00,
2013-03-02 08:42:00,30.9,28.9,30.04,NE,36,0.0,1.0,92,0.00,,,0.00,Wunderground v.1.15,2013-03-02 13:42:00,
2013-03-02 08:47:00,30.9,28.6,30.04,NNW,338,0.0,5.0,91,0.00,,,0.00,Wunderground v.1.15,2013-03-02 13:47:00,
2013-03-02 08:52:00,31.0,28.9,30.04,NE,34,4.0,5.0,92,0.00,,,0.00,Wunderground v.1.15,2013-03-02 13:52:00,
2013-03-02 08:57:00,31.1,28.8,30.04,North,5,0.0,6.0,91,0.00,,,0.00,Wunderground v.1.15,2013-03-02 13:57:00,
2013-03-02 09:02:00,31.3,29.0,30.04,NNE,17,0.0,3.0,91,0.00,,,0.00,Wunderground v.1.15,2013-03-02 14:02:00,
2013-03-02 09:07:00,31.5,29.2,30.04,NNE,15,1.0,4.0,91,0.00,,,0.00,Wunderground v.1.15,2013-03-02 14:07:00,
2013-03-02 09:12:00,32.1,30.0,30.04,NNE,15,0.0,1.0,92,0.00,,,0.00,Wunderground v.1.15,2013-03-02 14:12:00,
2013-03-02 09:17:00,32.6,29.7,30.04,NW,304,0.0,2.0,89,0.00,,,0.00,Wunderground v.1.15,2013-03-02 14:17:00,
2013-03-02 09:22:00,32.8,29.6,30.04,NNE,29,3.0,3.0,88,0.00,,,0.00,Wunderground v.1.15,2013-03-02 14:22:00,
2013-03-02 09:27:00,33.0,29.8,30.04,NE,49,1.0,3.0,88,0.00,,,0.00,Wunderground v.1.15,2013-03-02 14:27:00,
2013-03-02 09:32:00,33.0,29.6,30.03,SW,214,1.0,3.0,87,0.00,,,0.00,Wunderground v.1.15,2013-03-02 14:32:00,
2013-03-02 09:37:00,32.9,29.5,30.03,North,5,3.0,3.0,87,0.00,,,0.01,Wunderground v.1.15,2013-03-02 14:37:00,
2013-03-02 09:43:00,32.8,29.4,30.03,NNE,30,0.0,2.0,87,0.00,,,0.01,Wunderground v.1.15,2013-03-02 14:43:00,
2013-03-02 09:48:00,32.8,29.1,30.04,North,5,0.0,10.0,86,0.00,,,0.01,Wunderground v.1.15,2013-03-02 14:48:00,
2013-03-02 09:53:00,32.9,29.2,30.03,North,9,1.0,1.0,86,0.00,,,0.01,Wunderground v.1.15,2013-03-02 14:53:00,
2013-03-02 09:58:00,32.9,28.9,30.04,NNE,12,3.0,9.0,85,0.00,,,0.01,Wunderground v.1.15,2013-03-02 14:58:00,
2013-03-02 10:03:00,33.2,28.6,30.04,NW,306,1.0,6.0,83,0.00,,,0.01,Wunderground v.1.15,2013-03-02 15:03:00,
2013-03-02 10:08:00,33.4,29.1,30.03,NNE,14,0.0,6.0,84,0.00,,,0.01,Wunderground v.1.15,2013-03-02 15:08:00,
2013-03-02 10:13:00,33.8,28.9,30.03,NNE,14,1.0,10.0,82,0.00,,,0.01,Wunderground v.1.15,2013-03-02 15:13:00,
2013-03-02 10:18:00,34.2,29.3,30.03,NNW,342,0.0,10.0,82,0.00,,,0.01,Wunderground v.1.15,2013-03-02 15:18:00,
2013-03-02 10:23:00,34.5,29.0,30.03,West,277,0.0,3.0,80,0.00,,,0.01,Wunderground v.1.15,2013-03-02 15:23:00,
2013-03-02 10:28:00,35.1,29.2,30.03,SW,222,2.0,4.0,79,0.00,,,0.01,Wunderground v.1.15,2013-03-02 15:28:00,
2013-03-02 10:33:00,35.5,29.6,30.03,NNW,343,1.0,3.0,79,0.00,,,0.01,Wunderground v.1.15,2013-03-02 15:33:00,
2013-03-02 10:38:00,35.5,28.7,30.03,North,360,4.0,7.0,76,0.00,,,0.01,Wunderground v.1.15,2013-03-02 15:38:00,
2013-03-02 10:43:00,35.5,28.7,30.04,SSW,207,0.0,5.0,76,0.00,,,0.01,Wunderground v.1.15,2013-03-02 15:43:00,
2013-03-02 10:48:00,35.5,27.4,30.03,WNW,287,1.0,11.0,72,0.00,,,0.01,Wunderground v.1.15,2013-03-02 15:48:00,
2013-03-02 10:53:00,35.7,28.2,30.03,East,88,0.0,4.0,74,0.00,,,0.01,Wunderground v.1.15,2013-03-02 15:53:00,
2013-03-02 10:58:00,35.9,28.1,30.03,NE,42,1.0,6.0,73,0.00,,,0.01,Wunderground v.1.15,2013-03-02 15:58:00,
2013-03-02 11:03:00,35.9,28.1,30.03,WNW,302,0.0,9.0,73,0.00,,,0.01,Wunderground v.1.15,2013-03-02 16:03:00,
2013-03-02 11:08:00,35.9,28.7,30.03,South,188,3.0,9.0,75,0.00,,,0.01,Wunderground v.1.15,2013-03-02 16:08:00,
2013-03-02 11:13:00,36.0,28.8,30.03,SSW,202,1.0,2.0,75,0.00,,,0.01,Wunderground v.1.15,2013-03-02 16:13:00,
2013-03-02 11:18:00,36.5,29.3,30.03,SSW,211,0.0,5.0,75,0.00,,,0.01,Wunderground v.1.15,2013-03-02 16:18:00,
2013-03-02 11:23:00,37.1,29.9,30.03,West,263,3.0,6.0,75,0.00,,,0.01,Wunderground v.1.15,2013-03-02 16:23:00,
2013-03-02 11:28:00,37.2,30.3,30.03,SE,135,0.0,6.0,76,0.00,,,0.01,Wunderground v.1.15,2013-03-02 16:28:00,
2013-03-02 11:33:00,37.2,29.3,30.03,NNW,332,0.0,10.0,73,0.00,,,0.01,Wunderground v.1.15,2013-03-02 16:33:00,
2013-03-02 11:38:00,37.0,29.5,30.03,WSW,258,1.0,10.0,74,0.00,,,0.01,Wunderground v.1.15,2013-03-02 16:38:00,
2013-03-02 11:43:00,36.8,29.0,30.03,NNE,22,7.0,7.0,73,0.00,,,0.01,Wunderground v.1.15,2013-03-02 16:43:00,
2013-03-02 11:48:00,36.7,29.2,30.03,NE,36,0.0,7.0,74,0.00,,,0.01,Wunderground v.1.15,2013-03-02 16:48:00,
2013-03-02 11:53:00,36.5,28.7,30.03,NNE,22,7.0,7.0,73,0.00,,,0.01,Wunderground v.1.15,2013-03-02 16:53:00,
2013-03-02 11:58:00,36.2,28.4,30.03,North,5,3.0,12.0,73,0.00,,,0.01,Wunderground v.1.15,2013-03-02 16:58:00,
2013-03-02 12:03:00,36.1,28.3,30.03,SW,229,0.0,2.0,73,0.00,,,0.01,Wunderground v.1.15,2013-03-02 17:03:00,
2013-03-02 12:08:00,36.6,29.4,30.03,ENE,70,2.0,5.0,75,0.00,,,0.01,Wunderground v.1.15,2013-03-02 17:08:00,
2013-03-02 12:13:00,37.0,29.1,30.03,NNE,27,5.0,5.0,73,0.00,,,0.01,Wunderground v.1.15,2013-03-02 17:13:00,
2013-03-02 12:18:00,37.2,29.0,30.03,WSW,242,1.0,9.0,72,0.00,,,0.01,Wunderground v.1.15,2013-03-02 17:18:00,
2013-03-02 12:24:00,37.3,28.4,30.03,WNW,291,2.0,10.0,70,0.00,,,0.01,Wunderground v.1.15,2013-03-02 17:24:00,
2013-03-02 12:29:00,37.2,28.0,30.02,WNW,290,1.0,10.0,69,0.00,,,0.01,Wunderground v.1.15,2013-03-02 17:29:00,
2013-03-02 12:34:00,37.1,27.9,30.02,WNW,294,2.0,3.0,69,0.00,,,0.01,Wunderground v.1.15,2013-03-02 17:34:00,
2013-03-02 12:39:00,37.0,28.8,30.02,NNE,28,1.0,6.0,72,0.00,,,0.01,Wunderground v.1.15,2013-03-02 17:39:00,
2013-03-02 12:44:00,36.9,27.7,30.03,WSW,246,2.0,3.0,69,0.00,,,0.01,Wunderground v.1.15,2013-03-02 17:44:00,
2013-03-02 12:49:00,36.6,28.1,30.02,ESE,118,3.0,10.0,71,0.00,,,0.01,Wunderground v.1.15,2013-03-02 17:49:00,
2013-03-02 12:54:00,36.5,28.0,30.02,North,11,0.0,7.0,71,0.00,,,0.01,Wunderground v.1.15,2013-03-02 17:54:00,
2013-03-02 12:59:00,36.6,28.1,30.02,East,98,0.0,10.0,71,0.00,,,0.01,Wunderground v.1.15,2013-03-02 17:59:00,
2013-03-02 13:04:00,36.8,28.3,30.02,NW,304,1.0,2.0,71,0.00,,,0.01,Wunderground v.1.15,2013-03-02 18:04:00,
2013-03-02 13:09:00,37.3,27.3,30.01,NNW,347,0.0,6.0,67,0.00,,,0.01,Wunderground v.1.15,2013-03-02 18:09:00,
2013-03-02 13:14:00,37.7,27.4,30.00,SW,225,3.0,5.0,66,0.00,,,0.01,Wunderground v.1.15,2013-03-02 18:14:00,
2013-03-02 13:19:00,38.2,27.5,30.00,NW,320,1.0,10.0,65,0.00,,,0.01,Wunderground v.1.15,2013-03-02 18:19:00,
2013-03-02 13:24:00,38.4,27.3,30.00,SSW,212,2.0,3.0,64,0.00,,,0.01,Wunderground v.1.15,2013-03-02 18:24:00,
2013-03-02 13:29:00,38.4,27.3,30.00,SW,215,1.0,3.0,64,0.00,,,0.01,Wunderground v.1.15,2013-03-02 18:29:00,
2013-03-02 13:34:00,38.5,27.4,30.00,West,261,2.0,5.0,64,0.00,,,0.01,Wunderground v.1.15,2013-03-02 18:34:00,
2013-03-02 13:39:00,38.7,27.2,30.00,West,267,1.0,5.0,63,0.00,,,0.01,Wunderground v.1.15,2013-03-02 18:39:00,
2013-03-02 13:44:00,38.8,27.3,30.00,West,273,2.0,3.0,63,0.00,,,0.01,Wunderground v.1.15,2013-03-02 18:44:00,
2013-03-02 13:49:00,38.8,27.3,30.00,WSW,254,2.0,5.0,63,0.00,,,0.01,Wunderground v.1.15,2013-03-02 18:49:00,
2013-03-02 13:54:00,38.4,27.3,30.00,NNW,335,1.0,3.0,64,0.00,,,0.01,Wunderground v.1.15,2013-03-02 18:54:00,
2013-03-02 13:59:00,38.2,27.5,30.00,NNE,23,0.0,3.0,65,0.00,,,0.01,Wunderground v.1.15,2013-03-02 18:59:00,
2013-03-02 14:04:00,38.1,27.4,30.00,NNE,33,3.0,4.0,65,0.00,,,0.01,Wunderground v.1.15,2013-03-02 19:04:00,
2013-03-02 14:09:00,38.2,27.5,30.00,NNW,347,1.0,5.0,65,0.00,,,0.01,Wunderground v.1.15,2013-03-02 19:09:00,
2013-03-02 14:14:00,38.4,28.0,30.00,WSW,250,1.0,3.0,66,0.00,,,0.01,Wunderground v.1.15,2013-03-02 19:14:00,
2013-03-02 14:19:00,38.7,27.9,30.00,WSW,250,1.0,4.0,65,0.00,,,0.01,Wunderground v.1.15,2013-03-02 19:19:00,
2013-03-02 14:25:00,38.6,27.1,30.00,SW,215,0.0,5.0,63,0.00,,,0.01,Wunderground v.1.15,2013-03-02 19:25:00,
2013-03-02 14:30:00,38.6,26.7,30.00,WNW,288,1.0,5.0,62,0.00,,,0.01,Wunderground v.1.15,2013-03-02 19:30:00,
2013-03-02 14:35:00,38.2,27.1,30.00,West,268,2.0,9.0,64,0.00,,,0.01,Wunderground v.1.15,2013-03-02 19:35:00,
2013-03-02 14:40:00,37.8,27.1,30.00,NNW,344,3.0,3.0,65,0.00,,,0.01,Wunderground v.1.15,2013-03-02 19:40:00,
2013-03-02 14:45:00,37.6,28.0,30.00,NW,318,0.0,6.0,68,0.00,,,0.01,Wunderground v.1.15,2013-03-02 19:45:00,
2013-03-02 14:50:00,37.3,28.4,30.00,NE,34,1.0,7.0,70,0.00,,,0.01,Wunderground v.1.15,2013-03-02 19:50:00,
2013-03-02 14:55:00,37.0,28.8,30.00,NNW,327,1.0,7.0,72,0.00,,,0.01,Wunderground v.1.15,2013-03-02 19:55:00,
2013-03-02 15:00:00,36.9,29.1,30.00,West,261,0.0,2.0,73,0.00,,,0.01,Wunderground v.1.15,2013-03-02 20:00:00,
2013-03-02 15:05:00,36.6,29.4,30.00,NE,45,3.0,7.0,75,0.00,,,0.01,Wunderground v.1.15,2013-03-02 20:05:00,
2013-03-02 15:11:00,36.3,29.5,30.00,NNW,340,3.0,4.0,76,0.00,,,0.01,Wunderground v.1.15,2013-03-02 20:11:00,
2013-03-02 15:16:00,36.1,29.6,30.00,North,10,0.0,12.0,77,0.00,,,0.01,Wunderground v.1.15,2013-03-02 20:16:00,
2013-03-02 15:21:00,35.9,29.4,30.00,West,281,0.0,1.0,77,0.00,,,0.01,Wunderground v.1.15,2013-03-02 20:21:00,
2013-03-02 15:26:00,35.7,28.9,30.00,NE,44,2.0,10.0,76,0.00,,,0.01,Wunderground v.1.15,2013-03-02 20:26:00,
2013-03-02 15:31:00,35.5,28.4,30.01,NNW,336,1.0,3.0,75,0.00,,,0.01,Wunderground v.1.15,2013-03-02 20:31:00,
2013-03-02 15:36:00,35.4,28.3,30.00,NW,326,0.0,4.0,75,0.00,,,0.01,Wunderground v.1.15,2013-03-02 20:36:00,
2013-03-02 15:41:00,35.4,28.6,30.01,West,276,0.0,2.0,76,0.00,,,0.01,Wunderground v.1.15,2013-03-02 20:41:00,
2013-03-02 15:46:00,35.5,29.0,30.01,NE,42,0.0,5.0,77,0.00,,,0.01,Wunderground v.1.15,2013-03-02 20:46:00,
2013-03-02 15:51:00,35.4,28.9,30.01,NE,40,2.0,3.0,77,0.00,,,0.01,Wunderground v.1.15,2013-03-02 20:51:00,
2013-03-02 15:56:00,35.4,29.2,30.01,North,11,2.0,3.0,78,0.00,,,0.01,Wunderground v.1.15,2013-03-02 20:56:00,
2013-03-02 16:01:00,35.5,29.3,30.01,NNW,344,1.0,2.0,78,0.00,,,0.01,Wunderground v.1.15,2013-03-02 21:01:00,
2013-03-02 16:06:00,35.4,29.2,30.01,NNE,26,0.0,4.0,78,0.00,,,0.01,Wunderground v.1.15,2013-03-02 21:06:00,
2013-03-02 16:11:00,35.3,28.5,30.01,NW,307,0.0,2.0,76,0.00,,,0.01,Wunderground v.1.15,2013-03-02 21:11:00,
2013-03-02 16:16:00,35.3,29.1,30.01,NNW,330,2.0,5.0,78,0.00,,,0.01,Wunderground v.1.15,2013-03-02 21:16:00,
2013-03-02 16:21:00,35.2,29.0,30.02,NW,325,2.0,10.0,78,0.00,,,0.01,Wunderground v.1.15,2013-03-02 21:21:00,
2013-03-02 16:26:00,35.0,29.1,30.02,North,11,6.0,10.0,79,0.00,,,0.01,Wunderground v.1.15,2013-03-02 21:26:00,
2013-03-02 16:31:00,34.8,28.6,30.02,NE,46,0.0,6.0,78,0.00,,,0.01,Wunderground v.1.15,2013-03-02 21:31:00,
2013-03-02 16:36:00,34.4,28.2,30.02,NE,36,5.0,6.0,78,0.00,,,0.01,Wunderground v.1.15,2013-03-02 21:36:00,
2013-03-02 16:41:00,34.0,27.9,30.02,WNW,282,1.0,3.0,78,0.00,,,0.01,Wunderground v.1.15,2013-03-02 21:41:00,
2013-03-02 16:46:00,33.7,28.2,30.02,SSE,166,1.0,7.0,80,0.00,,,0.01,Wunderground v.1.15,2013-03-02 21:46:00,
2013-03-02 16:51:00,33.4,28.2,30.02,NNE,13,3.0,3.0,81,0.00,,,0.01,Wunderground v.1.15,2013-03-02 21:51:00,
2013-03-02 16:56:00,33.1,27.3,30.03,WNW,301,0.0,7.0,79,0.00,,,0.01,Wunderground v.1.15,2013-03-02 21:56:00,
2013-03-02 17:01:00,33.0,27.5,30.02,West,272,2.0,3.0,80,0.00,,,0.01,Wunderground v.1.15,2013-03-02 22:01:00,
2013-03-02 17:06:00,33.0,27.5,30.03,West,272,1.0,3.0,80,0.00,,,0.01,Wunderground v.1.15,2013-03-02 22:06:00,
2013-03-02 17:11:00,32.9,27.7,30.03,WNW,298,0.0,2.0,81,0.00,,,0.01,Wunderground v.1.15,2013-03-02 22:11:00,
2013-03-02 17:16:00,32.7,27.8,30.03,WNW,298,0.0,2.0,82,0.00,,,0.01,Wunderground v.1.15,2013-03-02 22:16:00,
2013-03-02 17:21:00,32.6,27.7,30.03,NNE,32,0.0,2.0,82,0.00,,,0.01,Wunderground v.1.15,2013-03-02 22:21:00,
2013-03-02 17:26:00,32.6,27.7,30.03,NNW,334,0.0,5.0,82,0.00,,,0.01,Wunderground v.1.15,2013-03-02 22:26:00,
2013-03-02 17:31:00,32.5,27.6,30.03,SSW,208,0.0,1.0,82,0.00,,,0.01,Wunderground v.1.15,2013-03-02 22:31:00,
2013-03-02 17:36:00,32.5,27.6,30.03,NW,304,1.0,5.0,82,0.00,,,0.01,Wunderground v.1.15,2013-03-02 22:36:00,
2013-03-02 17:41:00,32.4,27.2,30.04,WSW,258,1.0,2.0,81,0.00,,,0.01,Wunderground v.1.15,2013-03-02 22:41:00,
2013-03-02 17:46:00,32.4,27.2,30.03,WSW,256,3.0,4.0,81,0.00,,,0.01,Wunderground v.1.15,2013-03-02 22:46:00,
2013-03-02 17:51:00,32.4,27.2,30.03,West,262,0.0,2.0,81,0.00,,,0.01,Wunderground v.1.15,2013-03-02 22:51:00,
2013-03-02 17:56:00,32.3,27.1,30.04,WNW,296,2.0,6.0,81,0.00,,,0.01,Wunderground v.1.15,2013-03-02 22:56:00,
2013-03-02 18:01:00,32.2,27.0,30.04,NNW,336,2.0,2.0,81,0.00,,,0.01,Wunderground v.1.15,2013-03-02 23:01:00,
2013-03-02 18:06:00,32.1,26.6,30.04,NW,315,1.0,3.0,80,0.00,,,0.01,Wunderground v.1.15,2013-03-02 23:06:00,
2013-03-02 18:11:00,32.0,26.8,30.04,NNW,343,0.0,2.0,81,0.00,,,0.01,Wunderground v.1.15,2013-03-02 23:11:00,
2013-03-02 18:16:00,31.8,26.9,30.04,NNW,345,0.0,2.0,82,0.00,,,0.01,Wunderground v.1.15,2013-03-02 23:16:00,
2013-03-02 18:21:00,31.7,26.8,30.05,NNE,31,1.0,3.0,82,0.00,,,0.01,Wunderground v.1.15,2013-03-02 23:21:00,
2013-03-02 18:26:00,31.5,26.3,30.05,West,279,1.0,4.0,81,0.00,,,0.01,Wunderground v.1.15,2013-03-02 23:26:00,
2013-03-02 18:31:00,31.3,26.4,30.05,WSW,248,0.0,3.0,82,0.00,,,0.01,Wunderground v.1.15,2013-03-02 23:31:00,
2013-03-02 18:37:00,31.2,26.3,30.05,WSW,248,1.0,3.0,82,0.00,,,0.01,Wunderground v.1.15,2013-03-02 23:37:00,
2013-03-02 18:42:00,31.1,26.2,30.06,West,277,2.0,3.0,82,0.00,,,0.01,Wunderground v.1.15,2013-03-02 23:42:00,
2013-03-02 18:47:00,31.0,26.4,30.05,NW,320,1.0,3.0,83,0.00,,,0.01,Wunderground v.1.15,2013-03-02 23:47:00,
2013-03-02 18:52:00,30.9,26.3,30.06,WNW,302,0.0,3.0,83,0.00,,,0.01,Wunderground v.1.15,2013-03-02 23:52:00,
2013-03-02 18:57:00,30.6,25.8,30.06,NNE,32,3.0,5.0,82,0.00,,,0.01,Wunderground v.1.15,2013-03-02 23:57:00,
2013-03-02 19:02:00,30.4,25.6,30.06,North,351,1.0,2.0,82,0.00,,,0.01,Wunderground v.1.15,2013-03-03 00:02:00,
2013-03-02 19:07:00,30.3,25.5,30.06,NW,320,2.0,6.0,82,0.00,,,0.01,Wunderground v.1.15,2013-03-03 00:07:00,
2013-03-02 19:12:00,30.2,25.7,30.06,WNW,286,0.0,4.0,83,0.00,,,0.01,Wunderground v.1.15,2013-03-03 00:12:00,
2013-03-02 19:17:00,30.1,25.3,30.06,NNE,19,3.0,11.0,82,0.00,,,0.01,Wunderground v.1.15,2013-03-03 00:17:00,
2013-03-02 19:22:00,30.0,25.5,30.07,North,9,1.0,2.0,83,0.00,,,0.01,Wunderground v.1.15,2013-03-03 00:22:00,
2013-03-02 19:27:00,30.0,25.2,30.07,NNE,23,2.0,2.0,82,0.00,,,0.01,Wunderground v.1.15,2013-03-03 00:27:00,
2013-03-02 19:32:00,30.0,25.2,30.06,NE,40,0.0,5.0,82,0.00,,,0.01,Wunderground v.1.15,2013-03-03 00:32:00,
2013-03-02 19:37:00,30.0,24.9,30.07,NW,315,0.0,6.0,81,0.00,,,0.01,Wunderground v.1.15,2013-03-03 00:37:00,
2013-03-02 19:42:00,29.9,25.1,30.07,WNW,294,0.0,2.0,82,0.00,,,0.01,Wunderground v.1.15,2013-03-03 00:42:00,
2013-03-02 19:47:00,29.9,24.8,30.07,NNW,336,0.0,3.0,81,0.00,,,0.01,Wunderground v.1.15,2013-03-03 00:47:00,
2013-03-02 19:52:00,29.8,25.0,30.07,West,267,1.0,3.0,82,0.00,,,0.01,Wunderground v.1.15,2013-03-03 00:52:00,
2013-03-02 19:57:00,29.7,24.9,30.07,NNE,16,1.0,4.0,82,0.00,,,0.01,Wunderground v.1.15,2013-03-03 00:57:00,
2013-03-02 20:02:00,29.6,24.8,30.07,NW,325,1.0,2.0,82,0.00,,,0.01,Wunderground v.1.15,2013-03-03 01:02:00,
2013-03-02 20:07:00,29.5,24.7,30.08,West,264,0.0,4.0,82,0.00,,,0.01,Wunderground v.1.15,2013-03-03 01:07:00,
2013-03-02 20:13:00,29.3,24.5,30.08,NW,309,0.0,5.0,82,0.00,,,0.01,Wunderground v.1.15,2013-03-03 01:13:00,
2013-03-02 20:18:00,29.1,24.3,30.08,North,355,1.0,6.0,82,0.00,,,0.01,Wunderground v.1.15,2013-03-03 01:18:00,
2013-03-02 20:23:00,28.9,24.1,30.08,WSW,245,0.0,7.0,82,0.00,,,0.01,Wunderground v.1.15,2013-03-03 01:23:00,
2013-03-02 20:28:00,28.8,24.0,30.08,West,277,0.0,7.0,82,0.00,,,0.01,Wunderground v.1.15,2013-03-03 01:28:00,
2013-03-02 20:33:00,28.7,23.9,30.08,WSW,256,1.0,4.0,82,0.00,,,0.01,Wunderground v.1.15,2013-03-03 01:33:00,
2013-03-02 20:38:00,28.6,23.8,30.08,ENE,57,1.0,4.0,82,0.00,,,0.01,Wunderground v.1.15,2013-03-03 01:38:00,
2013-03-02 20:43:00,28.4,23.6,30.08,West,271,0.0,4.0,82,0.00,,,0.01,Wunderground v.1.15,2013-03-03 01:43:00,
2013-03-02 20:48:00,28.3,23.5,30.08,SSW,207,2.0,4.0,82,0.00,,,0.01,Wunderground v.1.15,2013-03-03 01:48:00,
2013-03-02 20:53:00,28.3,23.2,30.09,North,5,0.0,2.0,81,0.00,,,0.01,Wunderground v.1.15,2013-03-03 01:53:00,
2013-03-02 20:58:00,28.3,23.2,30.09,North,360,2.0,4.0,81,0.00,,,0.01,Wunderground v.1.15,2013-03-03 01:58:00,
2013-03-02 21:03:00,28.3,23.2,30.09,NNW,331,3.0,3.0,81,0.00,,,0.01,Wunderground v.1.15,2013-03-03 02:03:00,
2013-03-02 21:09:00,28.3,23.2,30.09,NE,41,0.0,4.0,81,0.00,,,0.01,Wunderground v.1.15,2013-03-03 02:09:00,
2013-03-02 21:14:00,28.2,23.1,30.09,North,10,0.0,3.0,81,0.00,,,0.01,Wunderground v.1.15,2013-03-03 02:14:00,
2013-03-02 21:19:00,28.2,23.1,30.09,WNW,299,1.0,3.0,81,0.00,,,0.01,Wunderground v.1.15,2013-03-03 02:19:00,
2013-03-02 21:24:00,28.2,23.4,30.10,North,11,2.0,2.0,82,0.00,,,0.01,Wunderground v.1.15,2013-03-03 02:24:00,
2013-03-02 21:29:00,28.1,23.0,30.09,West,263,2.0,6.0,81,0.00,,,0.01,Wunderground v.1.15,2013-03-03 02:29:00,
2013-03-02 21:34:00,28.1,23.0,30.09,WSW,242,0.0,2.0,81,0.00,,,0.01,Wunderground v.1.15,2013-03-03 02:34:00,
2013-03-02 21:39:00,28.1,23.0,30.09,North,11,2.0,4.0,81,0.00,,,0.01,Wunderground v.1.15,2013-03-03 02:39:00,
2013-03-02 21:44:00,28.0,22.9,30.09,WNW,286,1.0,2.0,81,0.00,,,0.01,Wunderground v.1.15,2013-03-03 02:44:00,
2013-03-02 21:49:00,28.0,22.6,30.09,ENE,78,0.0,6.0,80,0.00,,,0.01,Wunderground v.1.15,2013-03-03 02:49:00,
2013-03-02 21:54:00,28.0,22.3,30.09,West,263,0.0,2.0,79,0.00,,,0.01,Wunderground v.1.15,2013-03-03 02:54:00,
2013-03-02 21:59:00,27.9,22.2,30.10,North,360,7.0,12.0,79,0.00,,,0.01,Wunderground v.1.15,2013-03-03 02:59:00,
2013-03-02 22:04:00,27.8,22.4,30.10,NE,35,2.0,3.0,80,0.00,,,0.01,Wunderground v.1.15,2013-03-03 03:04:00,
2013-03-02 22:09:00,27.8,22.4,30.09,NNE,17,7.0,10.0,80,0.00,,,0.01,Wunderground v.1.15,2013-03-03 03:09:00,
2013-03-02 22:14:00,27.7,22.3,30.09,NNE,30,2.0,7.0,80,0.00,,,0.01,Wunderground v.1.15,2013-03-03 03:14:00,
2013-03-02 22:19:00,27.7,22.6,30.09,NNE,20,3.0,7.0,81,0.00,,,0.01,Wunderground v.1.15,2013-03-03 03:19:00,
2013-03-02 22:24:00,27.7,22.6,30.09,WNW,289,1.0,11.0,81,0.00,,,0.01,Wunderground v.1.15,2013-03-03 03:24:00,
2013-03-02 22:29:00,27.6,22.5,30.09,NW,321,1.0,11.0,81,0.00,,,0.01,Wunderground v.1.15,2013-03-03 03:29:00,
2013-03-02 22:34:00,27.6,22.8,30.10,SSW,200,0.0,4.0,82,0.00,,,0.01,Wunderground v.1.15,2013-03-03 03:34:00,
2013-03-02 22:39:00,27.6,22.8,30.10,WNW,291,0.0,4.0,82,0.00,,,0.01,Wunderground v.1.15,2013-03-03 03:39:00,
2013-03-02 22:44:00,27.5,22.7,30.10,NNW,340,1.0,1.0,82,0.00,,,0.01,Wunderground v.1.15,2013-03-03 03:44:00,
2013-03-02 22:49:00,27.4,22.3,30.10,WNW,300,1.0,8.0,81,0.00,,,0.01,Wunderground v.1.15,2013-03-03 03:49:00,
2013-03-02 22:54:00,27.4,22.3,30.09,WNW,300,2.0,9.0,81,0.00,,,0.01,Wunderground v.1.15,2013-03-03 03:54:00,
2013-03-02 22:59:00,27.4,22.3,30.10,SSW,202,1.0,9.0,81,0.00,,,0.01,Wunderground v.1.15,2013-03-03 03:59:00,
2013-03-02 23:04:00,27.4,22.3,30.10,WSW,245,1.0,11.0,81,0.00,,,0.01,Wunderground v.1.15,2013-03-03 04:04:00,
2013-03-02 23:09:00,27.3,22.2,30.10,NNW,340,0.0,11.0,81,0.00,,,0.01,Wunderground v.1.15,2013-03-03 04:09:00,
2013-03-02 23:14:00,27.3,22.2,30.09,North,355,0.0,4.0,81,0.00,,,0.01,Wunderground v.1.15,2013-03-03 04:14:00,
2013-03-02 23:19:00,27.3,22.2,30.10,NW,313,0.0,6.0,81,0.00,,,0.01,Wunderground v.1.15,2013-03-03 04:19:00,
2013-03-02 23:24:00,27.3,22.2,30.09,NNW,338,5.0,11.0,81,0.00,,,0.01,Wunderground v.1.15,2013-03-03 04:24:00,
2013-03-02 23:29:00,27.2,22.4,30.10,SSE,148,0.0,11.0,82,0.00,,,0.01,Wunderground v.1.15,2013-03-03 04:29:00,
2013-03-02 23:34:00,27.2,22.4,30.10,WNW,290,1.0,3.0,82,0.00,,,0.01,Wunderground v.1.15,2013-03-03 04:34:00,
2013-03-02 23:39:00,27.1,22.3,30.10,NNW,346,3.0,3.0,82,0.00,,,0.01,Wunderground v.1.15,2013-03-03 04:39:00,
2013-03-02 23:44:00,27.0,22.2,30.09,NNE,23,3.0,5.0,82,0.00,,,0.01,Wunderground v.1.15,2013-03-03 04:44:00,
2013-03-02 23:49:00,27.0,22.2,30.09,NW,305,1.0,8.0,82,0.00,,,0.01,Wunderground v.1.15,2013-03-03 04:49:00,
2013-03-02 23:54:00,26.9,22.1,30.10,North,360,0.0,13.0,82,0.00,,,0.01,Wunderground v.1.15,2013-03-03 04:54:00,
2013-03-02 23:59:00,26.8,22.3,30.10,SW,229,3.0,13.0,83,0.00,,,0.00,Wunderground v.1.15,2013-03-03 04:59:00,